Hourly Weather Roundup
Issued by NWS Central Illinois

Home | Current Version | Previous Version | Text Only | Print | Product List | Glossary On
Versions: 1 2 3 4 5 6 7 8 9 10 11 12 13 14 15 16 17 18 19 20 21 22 23 24 25 26 27 28 29 30 31 32 33 34 35 36 37 38 39 40 41 42 43 44 45 46 47 48 49 50
000
NZUS43 KILX 231610
HWRILX

AREA WEATHER ROUNDUP
NATIONAL WEATHER SERVICE, LINCOLN IL
1100 AM CDT TUE SEP 23 2014


CITY           SKY/WX    TMP DP  RH WIND       PRES   REMARKS
BLOOMINGTON    SUNNY     67  49  52 S8        30.37S
CHAMPAIGN      SUNNY     67  47  48 VRB6      30.36S
DECATUR        SUNNY     67  48  50 VRB3      30.36S
FLORA          SUNNY     66  46  47 E6        30.35S HAZE
GALESBURG      SUNNY    N/A N/A N/A S8        30.35R
JACKSONVILLE   SUNNY     70  47  44 S7        30.35R
LACON          SUNNY     65  49  54 S5        30.35S
LAWRENCEVILLE  SUNNY     67  47  48 E5        30.35S
LITCHFIELD     SUNNY     65  49  55 SE8       30.35S
$$


CITY           SKY/WX    TMP DP  RH WIND       PRES   REMARKS
LINCOLN        SUNNY     69  47  45 S7        30.33F
MACOMB         SUNNY     68  46  44 S6        30.35S
MATTOON        SUNNY     64  48  56 SE5       30.35S
MT CARMEL AP   SUNNY     70  45  40 E5        30.35R
OLNEY-NOBLE AP SUNNY     66  46  48 E7        30.36R
PARIS          SUNNY     67  48  49 SE6       30.36F
PEORIA         SUNNY     67  49  52 S7        30.35S
PONTIAC        SUNNY     70  46  43 S5        30.36S
RANTOUL        SUNNY     68  43  40 S8        30.37S
ROBINSON       SUNNY     67  51  56 SE5       30.37S HAZE
SPRINGFIELD    SUNNY     68  49  50 SE7       30.35S
TAYLORVILLE    SUNNY     66  46  48 SE6       30.35F
$$

...REGIONAL REPORTS...


CITY           SKY/WX    TMP DP  RH WIND       PRES   REMARKS
CHICAGO O`HARE SUNNY     62  45  53 SW7       30.34S
KANKAKEE       SUNNY     67  50  54 S5        30.37S
MOLINE         SUNNY     68  48  48 SW8       30.34R
MOUNT VERNON   SUNNY     66  48  52 E3        30.36R
PITTSFIELD     SUNNY     69  48  47 S7        30.35S HAZE
QUINCY         SUNNY     67  48  50 S12       30.33R
ROCKFORD       MOSUNNY   67  48  50 SW8       30.36S
$$


CITY           SKY/WX    TMP DP  RH WIND       PRES   REMARKS
BURLINGTON     SUNNY     67  49  52 S7        30.33S
CEDAR RAPIDS   SUNNY     64  51  62 S10       30.31S
DES MOINES     CLOUDY    65  52  62 SE9       30.26F
KIRKSVILLE     MOSUNNY   66  51  58 S12       30.32S
OTTUMWA        MOSUNNY   66  49  54 S10       30.29F
ST LOUIS       MOSUNNY   69  48  47 S6        30.34S
$$


CITY           SKY/WX    TMP DP  RH WIND       PRES   REMARKS
TERRE HAUTE    SUNNY     66  47  50 VRB7      30.36S
EVANSVILLE     SUNNY     66  45  46 VRB6      30.33F
INDIANAPOLIS   SUNNY     63  46  54 SE5       30.36S
LAFAYETTE      SUNNY     64  48  56 NE3       30.36S
MADISON        MOSUNNY   67  51  56 VRB3      30.33R
MILWAUKEE      MOSUNNY   69  48  47 W9        30.32S
$$




USA.gov is the U.S. government's official web portal to all federal, state and local government web resources and services.